Location: Karb
(50.3553°N, 18.8705°E)
Time: 17:17:50
(UTC+00:00)

Daily predictions for brighter satellites

Satellite Brightness Start Highest point End
(mag) Time Altitude Azimuth Time Altitude Azimuth Time Altitude Azimuth
Ariane Rocket 4.5 19:37:16 10° SSW 19:41:55 36° W 19:46:38 10° NNW
BREEZE-M DEB (TANK) 2.6 19:40:33 10° WNW 19:45:16 56° SSW 19:47:24 10° SE
Aureole 1 Rocket 4.2 19:39:58 10° NNW 19:45:31 68° ENE 19:52:43 10° SSE
Cosmos 1459 Rocket 4.1 19:40:40 10° N 19:46:41 61° ENE 19:52:39 10° SSE
Cosmos 292 Rocket 3.9 19:44:58 10° SSW 19:49:49 86° WNW 19:54:40 10° NNE
Cosmos 1025 Rocket 3.9 19:46:43 10° SSE 19:50:39 34° E 19:54:37 10° NNE
KORONAS-FOTON 4.0 19:48:10 10° S 19:51:52 52° E 19:55:34 10° NNE
USA 267 4.1 19:45:42 10° E 19:52:00 53° N 19:58:20 10° WNW
SL-16 R/B 2.3 19:46:22 10° SSW 19:52:02 89° SE 19:57:46 10° NNE
Cosmos 2360 Rocket 2.5 19:46:59 10° S 19:52:20 46° ESE 19:57:43 10° NE
Cosmos 2322 Rocket 2.2 19:48:31 10° SSW 19:54:12 76° ESE 19:59:56 10° NNE
Genesis I 3.5 19:51:06 10° SW 19:54:58 72° NW 19:58:57 10° NE
USA 81 4.4 19:50:04 10° N 19:55:19 70° W 20:00:33 10° S
CARTOSAT-1 3.6 19:51:06 10° SSE 19:55:24 79° ENE 19:59:45 10° NNW
Cosmos 1461 2.9 19:51:22 10° NW 19:55:40 82° SW 19:59:43 10° SE
Resurs 01 Rocket 3.0 19:52:19 10° SSW 19:56:23 36° W 20:00:30 10° NNW
USA 245 4.3 19:53:54 10° S 19:58:45 75° WSW 20:04:36 10° NNW
Cosmos 1900 4.5 19:56:09 10° NW 20:01:05 71° NE 20:05:56 10° SE
Meteor 1-16 Rocket 4.2 19:55:46 10° NNW 20:01:19 89° E 20:06:41 10° S
JB-3 4.3 19:57:47 10° NNE 20:01:44 67° ESE 20:05:43 10° S
Cosmos 1975 Rocket 3.0 19:59:48 10° S 20:04:09 81° E 20:08:34 10° NNE
Cosmos 1110 Rocket 4.2 19:59:36 10° S 20:04:34 50° ESE 20:09:37 10° NNE
SPOT 5 3.0 20:02:34 10° SSE 20:07:42 76° ENE 20:12:36 10° NNW
ATLAS CENTAUR R/B 1.9 20:03:32 10° NW 20:07:46 60° NE 20:12:14 10° SE
Cosmos 2061 Rocket 4.3 20:01:42 10° N 20:08:04 58° ENE 20:14:15 11° SSE
Cosmos 968 Rocket 4.5 20:03:52 10° N 20:08:35 35° NE 20:13:17 10° ESE
Cosmos 1674 2.6 20:04:54 10° S 20:08:36 82° E 20:12:20 10° NNE
COSMOS 2428 4.0 20:06:27 10° SSE 20:10:50 23° ESE 20:15:13 10° NE
Cosmos 2322 4.5 20:07:35 10° SSE 20:12:32 32° ESE 20:17:31 10° NE
Terra 2.0 20:10:29 11° SSE 20:15:02 64° ENE 20:19:47 10° N
Cosmos 2237 4.2 20:10:03 10° SSW 20:15:44 80° ESE 20:21:28 10° NNE
Cosmos 2278 Rocket 3.6 20:11:10 10° NNW 20:16:08 30° NE 20:21:04 10° ESE
Cosmos 1300 3.5 20:12:54 10° N 20:16:31 38° ENE 20:19:35 13° SE
Lacrosse 5 3.7 20:16:47 10° W 20:20:26 20° SW 20:24:03 10° S
Cosmos 2123 Rocket 4.3 20:14:57 10° SSE 20:21:03 55° E 20:27:14 10° NNE
Cosmos 405 3.2 20:22:01 10° N 20:25:26 56° ENE 20:28:05 15° SSE
Cosmos 1844 Rocket 3.0 20:20:03 10° NW 20:25:40 64° WSW 20:30:54 12° SSE
Cosmos 2233 Rocket 4.4 20:21:30 10° N 20:27:27 49° ENE 20:32:42 13° SE
Cosmos 1452 Rocket 4.1 20:22:23 10° SW 20:27:37 61° WNW 20:32:52 10° NNE
SL-8 R/B 4.2 20:24:38 10° W 20:29:12 43° SSW 20:33:01 14° SE
Cosmos 2100 Rocket 4.4 20:23:10 10° NNW 20:29:29 66° W 20:35:44 10° S
ARIANE 5 R/B 3.5 20:29:33 10° S 20:33:50 47° W 20:38:12 10° NNW
Cosmos 1340 2.8 20:32:11 13° S 20:35:28 58° E 20:39:12 10° NNE
GEOS 3 Rocket 4.2 20:30:31 10° ESE 20:35:45 57° NE 20:40:59 10° NW
NOSS 3-2 (C) 4.4 20:30:21 10° WSW 20:36:04 54° NW 20:42:47 10° NE
H-2A R/B 3.7 20:32:21 10° NNE 20:36:21 50° E 20:39:42 14° S
Cosmos 1908 4.2 20:33:23 10° NNW 20:37:04 42° W 20:40:43 10° SSW
Cosmos 1346 Rocket 4.3 20:35:48 14° SE 20:38:00 22° E 20:41:06 10° NE
FALCON 9 DEB 3.1 20:36:19 10° SW 20:39:42 61° SSE 20:43:05 10° ENE
ATLAS 3B R/B 2.8 20:33:45 10° SSW 20:39:59 49° ESE 20:46:26 10° NE
Meteor 2-5 Rocket 3.9 20:36:28 13° S 20:41:20 54° E 20:46:48 10° NNE
FALCON 9 DEB 4.0 20:40:01 10° SSW 20:42:35 24° SE 20:45:08 10° E
Cosmos 1544 Rocket 4.1 20:39:51 10° NNW 20:44:15 56° W 20:48:22 11° S
FALCON 9 DEB 4.2 20:46:12 21° SE 20:46:20 21° SE 20:48:46 10° E
ERS-1 Rocket 3.7 20:44:31 10° S 20:49:21 49° W 20:54:16 10° NNW
Lacrosse 5 rocket 1.0 20:46:39 10° SW 20:50:14 55° SE 20:53:45 10° ENE
Cosmos 2016 Rocket 4.1 20:44:34 10° NNW 20:50:40 71° W 20:56:18 12° S
Cosmos 1331 Rocket 4.2 20:46:07 10° SSW 20:51:22 79° WNW 20:56:41 10° NNE
Cosmos 2333 4.2 20:45:39 10° SSW 20:51:22 72° ESE 20:57:05 10° NNE
FALCON 9 DEB 3.8 20:50:01 15° SSW 20:51:59 26° SE 20:54:38 10° E
Cosmos 1943 Rocket 4.5 20:51:58 10° N 20:55:33 17° NNE 20:59:09 10° ENE
ALOS 2 4.3 20:55:17 10° ESE 20:58:39 23° ENE 21:02:08 10° N
USA 215 3.7 20:53:19 10° ENE 20:59:24 40° SE 21:05:27 10° SSW
BREEZE-M DEB (TANK) 2.3 20:59:14 10° SW 21:01:55 48° SSE 21:07:52 10° ENE
Cosmos 2333 Rocket 2.2 20:56:55 10° SSW 21:02:38 72° ESE 21:08:22 10° NNE
Cosmos 1725 Rocket 4.2 20:56:39 10° NNW 21:02:48 68° W 21:08:13 14° S
Cosmos 1626 3.5 21:05:05 10° SW 21:08:31 36° WNW 21:11:58 10° N
Meteor 2-10 Rocket 3.5 21:05:03 10° N 21:10:12 77° ENE 21:13:41 20° SSE
Cosmos 1302 Rocket 4.0 21:04:57 10° SSW 21:10:14 82° ESE 21:15:30 10° NNE
SL-14 R/B 4.0 21:08:37 10° SSW 21:12:32 54° WNW 21:16:31 10° N
Cosmos 2219 Rocket 2.2 21:08:02 10° SSW 21:13:43 76° ESE 21:19:24 10° NNE
Cosmos 1607 4.4 21:08:45 10° NW 21:15:10 63° NE 21:20:59 12° SE
Cosmos 1867 3.6 21:11:40 10° NW 21:17:12 88° SW 21:21:11 19° SE
Cosmos 1536 Rocket 4.1 21:15:05 11° SSW 21:19:15 59° WNW 21:23:40 10° N
CENTAUR R/B 4.3 21:14:10 10° W 21:20:13 38° NNW 21:27:20 10° NE
DNEPR-1 R/B 4.4 21:20:25 10° NW 21:24:18 36° WSW 21:26:37 21° S
Meteor 1-24 Rocket 3.6 21:21:06 15° SSW 21:25:35 86° WNW 21:31:08 10° NNE
SL-16 R/B 4.2 21:24:26 10° ESE 21:26:34 12° E 21:28:43 10° ENE
COBE Rocket 4.4 21:25:02 19° SE 21:28:26 53° ENE 21:33:14 10° N
Cosmos 389 Rocket 2.3 21:25:09 10° NNW 21:28:35 84° W 21:30:14 29° S
Cosmos 2237 Rocket 3.0 21:27:21 21° SSE 21:30:17 34° ESE 21:35:19 10° NE
Iridium 2 3.9 21:30:31 27° SSE 21:32:19 56° E 21:36:01 10° NNE
Cosmos 2228 3.2 21:29:52 10° NNW 21:34:16 70° W 21:36:56 23° S
USA 267 3.3 21:28:12 10° ESE 21:34:46 87° NNE 21:41:22 10° WNW
Cosmos 2360 Rocket 3.6 21:31:12 10° WSW 21:36:27 38° NW 21:41:43 10° NNE
Cosmos 2322 Rocket 4.4 21:34:05 10° W 21:38:52 27° NW 21:43:39 10° NNE
Meteor 1-4 Rocket 4.4 21:38:00 10° NNE 21:40:45 21° ENE 21:42:37 14° ESE
Cosmos 1486 Rocket 4.2 21:36:53 10° NNW 21:42:03 61° WSW 21:45:12 23° S
Cosmos 1455 2.2 21:40:04 10° N 21:43:55 77° E 21:45:44 29° SSE
ATLAS CENTAUR R/B 3.1 21:42:53 10° WNW 21:46:24 24° WSW 21:48:22 18° SSW
Cosmos 2034 Rocket 4.4 21:40:42 10° N 21:46:46 52° ENE 21:51:00 20° SE
Cosmos 968 Rocket 4.3 21:45:41 10° NW 21:50:26 40° WSW 21:53:28 20° SSW
Cosmos 1184 Rocket 3.3 21:49:59 33° SE 21:50:55 44° E 21:54:03 10° NNE
Okean 1-7 Rocket 4.2 21:50:10 25° SSE 21:52:19 42° E 21:56:32 10° NNE
Terra 3.9 21:49:54 10° SW 21:53:14 19° W 21:56:35 10° NW
COSMOS 2428 3.0 21:48:50 10° SW 21:54:34 71° WNW 22:00:21 10° NNE
Cosmos 1354 Rocket 4.0 21:50:28 10° NNW 21:55:50 88° WSW 21:59:07 24° SSE
FALCON 9 DEB 2.8 21:54:51 15° SW 21:57:19 64° SSE 22:00:26 10° ENE
Cosmos 1992 Rocket 4.0 21:54:04 19° SSW 21:57:54 88° ESE 22:03:10 10° NNE
Uosat 12 SS-18 rocket 4.3 21:54:41 11° SW 21:59:01 84° NW 22:04:16 10° NE
Cosmos 2278 Rocket 2.3 21:55:03 10° NW 22:00:39 64° WSW 22:04:01 24° S
ATLAS CENTAUR R/B 3.8 21:59:32 23° S 22:02:41 41° ESE 22:14:12 10° NE
Cosmos 2058 Rocket 3.0 22:00:33 10° NNW 22:05:02 84° W 22:07:18 29° S
Cosmos 1726 Rocket 4.3 22:08:14 10° NNW 22:12:30 45° W 22:14:53 23° SSW
GENESIS II 4.2 22:11:59 30° SSW 22:13:46 64° SE 22:17:39 10° NE
GEOS 3 Rocket 4.4 22:11:17 24° S 22:13:56 39° WSW 22:18:56 10° NW
Cosmos 1346 Rocket 4.0 22:11:16 16° SW 22:14:07 38° WNW 22:17:55 10° N
FALCON 9 DEB 3.8 22:13:17 10° W 22:16:40 55° N 22:20:01 10° ENE
FALCON 9 DEB 2.8 22:14:50 10° WSW 22:17:56 81° NNW 22:21:02 10° ENE
GP-B 4.0 22:14:47 10° NNE 22:18:57 38° E 22:21:12 22° SE
FALCON 9 DEB 2.8 22:18:35 10° WSW 22:21:43 89° NW 22:24:51 10° ENE
NOSS 0 Rocket 4.0 22:16:43 16° SSW 22:21:54 86° WNW 22:28:12 10° NNE
SL-4 R/B 2.3 22:22:18 35° S 22:22:52 37° SSE 22:26:19 10° E
Aureole 3 4.5 22:22:36 10° N 22:25:54 34° ENE 22:28:14 19° SE
NOSS 3-1 (C) 4.4 22:25:09 21° SE 22:27:09 25° ESE 22:32:00 10° ENE
FALCON 9 DEB 2.9 22:24:16 10° WSW 22:27:23 76° NNW 22:30:31 10° ENE
Lacrosse 5 rocket 2.5 22:26:02 10° W 22:29:26 38° NNW 22:32:49 10° NE
ATLAS 3B R/B 3.4 22:24:16 10° WSW 22:30:42 52° NW 22:37:25 10° NE
SJ 16-02 2.0 22:27:13 10° NNW 22:31:30 49° ENE 22:34:22 19° SE
Cosmos 1892 Rocket 4.3 22:29:32 21° SW 22:32:16 48° WNW 22:36:37 10° N
ALOS 2 3.1 22:32:40 27° SSW 22:34:43 48° W 22:39:00 10° NNW
Nimbus 7 Rocket 4.5 22:32:55 10° NNE 22:39:00 81° ESE 22:42:52 24° SSW
Cosmos 1441 Rocket 3.3 22:38:21 30° SSW 22:40:06 69° WNW 22:43:57 10° N
Cosmos 1980 3.8 22:36:00 17° SW 22:40:25 75° WNW 22:46:08 10° NNE
Cosmos 1943 Rocket 2.5 22:34:59 10° NNW 22:40:28 62° ENE 22:45:01 15° SE
Cosmos 1703 3.5 22:39:40 29° SSW 22:41:32 62° WNW 22:45:28 10° N
USA 215 3.3 22:36:15 10° ENE 22:42:49 84° NNW 22:49:23 10° WSW
Cosmos 2333 Rocket 4.1 22:42:35 10° W 22:47:28 28° NW 22:52:22 10° NNE
Resurs 1-4 Rocket 4.4 22:46:02 10° ENE 22:48:09 12° E 22:50:15 10° ESE
USA 32 4.0 22:43:01 10° N 22:48:19 90° ENE 22:51:17 27° S
SAR-Lupe-2 3.6 22:45:24 10° N 22:48:59 74° WNW 22:50:27 33° SSW
Cosmos 1328 3.8 22:52:30 32° SSW 22:54:12 71° WNW 22:58:06 10° N
Cosmos 2219 Rocket 4.1 22:53:30 10° W 22:58:16 27° NW 23:03:03 10° NNE
EO 1 Del DPAF 4.0 22:55:21 10° NNE 22:58:52 38° E 23:00:15 27° SE
CZ-2D R/B 4.3 22:57:04 10° NE 22:59:53 14° E 23:02:41 10° ESE
Thor Agena Rocket 3.5 22:56:16 10° NNE 23:01:35 88° ESE 23:04:38 26° SSW
Cosmos 1626 Rocket 3.8 22:59:58 27° SSW 23:02:17 65° WNW 23:06:44 10° N
PSLV R/B 3.6 23:03:25 10° NNE 23:07:44 75° ESE 23:09:53 29° S
Cosmos 1634 Rocket 4.0 23:01:52 10° N 23:08:13 88° WSW 23:12:24 23° S
Helios 1A 4.1 23:05:25 15° SE 23:08:32 38° ENE 23:12:27 10° N
Cosmos 2279 Rocket 4.3 23:02:27 10° N 23:08:41 63° ENE 23:13:21 18° SSE
Cosmos 1602 Rocket 3.6 23:06:53 29° SSW 23:09:10 76° W 23:13:41 10° N
SL-16 R/B 2.2 23:06:17 25° SSW 23:09:37 70° ESE 23:15:17 10° NNE
X-37B 3.1 23:16:04 11° ESE 23:16:04 11° ESE 23:16:18 10° ESE
Cosmos 2237 Rocket 3.0 23:09:08 12° SW 23:14:12 48° NW 23:19:41 10° NNE
Meteor 1-4 Rocket 3.7 23:12:41 10° NNW 23:15:47 29° W 23:16:45 25° SW
Cosmos 1758 Rocket 3.6 23:14:18 29° S 23:16:32 80° E 23:20:58 10° NNE
Cosmos 405 Rocket 4.3 23:15:08 17° SE 23:16:51 24° E 23:19:54 10° NE
NOSS 2-3 (D) 4.4 23:15:21 27° SSE 23:16:53 36° ESE 23:21:15 10° NE
Cosmos 1825 3.9 23:15:22 16° SE 23:17:18 24° E 23:20:22 10° NE
USA 267 3.8 23:14:47 22° S 23:18:14 37° SW 23:24:15 10° WNW
Cosmos 2369 Rocket 2.5 23:17:15 10° NNW 23:22:59 70° ENE 23:28:37 10° SE
Lacrosse 4 Rocket 4.1 23:24:22 10° NNW 23:27:26 20° NE 23:30:28 10° E
OPS 6432 4.4 23:26:40 10° NW 23:29:36 51° SW 23:30:35 36° S
Cosmos-2242 3.2 23:26:48 10° NNW 23:31:10 64° W 23:33:23 28° S
FALCON 9 DEB 3.7 23:30:03 10° W 23:33:07 52° N 23:36:13 10° ENE
NOSS 2-3 (C) 3.9 23:31:45 28° S 23:33:40 51° SE 23:38:24 10° NE
Cosmos 1174 4.4 23:35:01 21° SW 23:38:49 87° SE 23:43:25 10° NE
Cosmos 1408 2.7 23:37:17 30° S 23:38:55 69° E 23:42:36 10° NNE
Cosmos 2297 4.3 23:38:17 10° NW 23:43:31 40° WSW 23:46:30 23° SSW
Cosmos 2278 Rocket 4.3 23:42:14 10° W 23:43:36 11° W 23:44:58 10° WSW
Meteor 1-27 4.5 23:41:37 10° NNW 23:47:02 54° W 23:50:26 22° SSW
YAOGAN 11 4.1 23:47:40 23° S 23:50:22 76° WSW 23:54:54 10° NNW
Cosmos 1242 Rocket 4.1 23:47:34 10° N 23:50:51 32° ENE 23:54:08 10° SE
FALCON 9 DEB 3.8 23:50:43 10° WNW 23:53:45 49° N 23:56:45 10° ENE
FALCON 9 DEB 3.5 23:50:24 10° WNW 23:53:48 65° NNE 23:57:11 10° E
NOSS 8 (E) 4.2 23:55:06 33° SSW 23:56:16 62° SE 23:59:13 10° NE
